Springfield, IL

9:03 AM CDT on March 25, 2017 (GMT -0500)
Capital

Weather History for KSPI - June, 2014

Change the Weather History Date:

Friday, June 6, 2014

  Actual Average Record
Temperature  
Mean Temperature 72 °F 70 °F  
Max Temperature 84 °F 81 °F 99 °F (1933)
Min Temperature 59 °F 59 °F 40 °F (1894)
Degree Days  
Heating Degree Days 0 1  
Month to date heating degree days 0 6  
Since 1 June heating degree days 0 6  
Since 1 July heating degree days 6206 5476  
Cooling Degree Days 7 6  
Month to date cooling degree days 63 33  
Year to date cooling degree days 239 137  
Since 1 June cooling degree days 63 33  
Growing Degree Days 22 (Base 50)    
Moisture  
Dew Point 60 °F    
Average Humidity 69    
Maximum Humidity 90    
Minimum Humidity 48    
Precipitation  
Precipitation 0.00 in 0.16 in 1.85 in (1918)
Month to date precipitation 2.28 0.93  
Year to date precipitation 16.57 14.94  
Snow  
Snow 0.00 in 0.00 in 0.00 in ()
Month to date snowfall 0.0 0.0  
Since 1 June snowfall 0.0 0.0  
Since 1 July snowfall 45.7 20.9  
Snow Depth 0.00 in    
Sea Level Pressure  
Sea Level Pressure 29.96 in    
Wind  
Wind Speed 4 mph (East)    
Max Wind Speed 9 mph    
Max Gust Speed 12 mph    
Visibility 10 miles    
Events      
T = Trace of Precipitation, MM = Missing Value Source: NWS Daily Summary

Daily Weather History Graph

Daily Weather History Graph

Search for Another Location

Airport or City:

Trip Planner

Search our weather history database for the weather conditions in past years. The results will help you decide how hot, cold, wet, or windy it might be!

Date:

Astronomy

Jun. 06, 2014 Rise Set
Actual Time 5:30 AM CDT 8:24 PM CDT
Civil Twilight 4:58 AM CDT 8:56 PM CDT
Nautical Twilight 4:17 AM CDT 9:37 PM CDT
Astronomical Twilight 3:30 AM CDT 10:24 PM CDT
Moon 1:44 PM CDT (6/6) 1:21 AM CDT (6/6)
Length of Visible Light 15h 58m
Length of Day
14h 53m
First Quarter, 58% of the Moon is Illuminated
Jun 6
First Quarter
Jun 12
Full
Jun 19
Last Quarter
Jun 27
New
Jul 5
First Quarter

Hourly Weather History & Observations

Time (CDT) Temp. Heat Index Dew Point Humidity Pressure Visibility Wind Dir Wind Speed Gust Speed Precip Events Conditions
12:52 AM 60.1 °F - 57.0 °F 90% 29.92 in 10.0 mi NNW 3.5 mph - N/A   Clear
1:52 AM 61.0 °F - 55.9 °F 83% 29.92 in 10.0 mi ENE 3.5 mph - N/A   Clear
2:52 AM 61.0 °F - 55.9 °F 83% 29.94 in 10.0 mi Calm Calm - N/A   Clear
3:52 AM 60.1 °F - 55.9 °F 86% 29.94 in 10.0 mi SE 3.5 mph - N/A   Clear
4:52 AM 59.0 °F - 55.0 °F 87% 29.95 in 10.0 mi NNE 3.5 mph - N/A   Clear
5:52 AM 59.0 °F - 55.0 °F 87% 29.96 in 10.0 mi Calm Calm - N/A   Clear
6:52 AM 63.0 °F - 57.9 °F 84% 29.97 in 10.0 mi East 3.5 mph - N/A   Clear
7:52 AM 68.0 °F - 59.0 °F 73% 29.99 in 10.0 mi SE 3.5 mph - N/A   Clear
8:52 AM 73.9 °F - 60.1 °F 62% 29.99 in 10.0 mi East 3.5 mph - N/A   Clear
9:52 AM 77.0 °F - 59.0 °F 54% 29.99 in 10.0 mi ENE 3.5 mph - N/A   Clear
10:52 AM 75.9 °F - 59.0 °F 56% 29.98 in 10.0 mi SW 5.8 mph - N/A   Scattered Clouds
11:52 AM 80.1 °F 81.1 °F 61.0 °F 52% 29.98 in 10.0 mi Variable 4.6 mph - N/A   Scattered Clouds
12:52 PM 81.0 °F 81.9 °F 62.1 °F 52% 29.98 in 10.0 mi SSE 5.8 mph - N/A   Scattered Clouds
1:52 PM 81.0 °F 81.7 °F 61.0 °F 50% 29.97 in 10.0 mi Variable 3.5 mph - N/A   Mostly Cloudy
2:52 PM 81.0 °F 81.7 °F 61.0 °F 50% 29.95 in 10.0 mi Calm Calm - N/A   Partly Cloudy
3:52 PM 84.0 °F 84.9 °F 63.0 °F 49% 29.95 in 10.0 mi NNE 4.6 mph - N/A   Mostly Cloudy
4:52 PM 81.0 °F 81.7 °F 61.0 °F 50% 29.95 in 10.0 mi SSE 3.5 mph - N/A   Overcast
5:52 PM 82.0 °F 83.0 °F 62.1 °F 51% 29.93 in 10.0 mi NE 5.8 mph - N/A   Partly Cloudy
6:52 PM 80.1 °F 81.5 °F 63.0 °F 56% 29.92 in 10.0 mi ENE 6.9 mph - N/A   Clear
7:52 PM 77.0 °F - 63.0 °F 62% 29.94 in 10.0 mi SE 5.8 mph - N/A   Clear
8:52 PM 73.9 °F - 62.1 °F 66% 29.95 in 10.0 mi SE 4.6 mph - N/A   Clear
9:52 PM 72.0 °F - 62.1 °F 71% 29.98 in 10.0 mi Calm Calm - N/A   Clear
10:52 PM 68.0 °F - 62.1 °F 81% 29.98 in 10.0 mi ESE 4.6 mph - N/A   Clear
11:52 PM 68.0 °F - 61.0 °F 78% 29.96 in 10.0 mi East 4.6 mph - N/A   Clear